Regional Weather Roundup
Issued by NWS

Home | Current Version | Previous Version | Graphics & Text | Print | Product List | Glossary On
Versions: 1 2 3 4 5 6 7 8 9 10 11 12 13 14 15 16 17 18 19 20 21 22 23 24 25 26 27 28 29 30 31 32 33 34 35 36 37 38 39 40 41 42 43 44 45 46 47 48 49 50
000
ASUS43 KFSD 201010
RWRSD

WEATHER ROUNDUP FOR SOUTH DAKOTA
NATIONAL WEATHER SERVICE SIOUX FALLS SD
500 AM CDT WED AUG 20 2014

NOTE: "FAIR" INDICATES FEW OR NO CLOUDS BELOW 12,000 FEET WITH NO
SIGNIFICANT WEATHER AND/OR OBSTRUCTIONS TO VISIBILITY.


SDZ001>005-009-010-012>017-201100-
NORTHWEST AND NORTH CENTRAL SOUTH DAKOTA

CITY           SKY/WX    TMP DP  RH WIND       PRES   REMARKS
BUFFALO          N/A     70  61  73 S8        29.65R
FAITH            N/A     70  63  78 S10       29.71F
MOBRIDGE       PTCLDY    66  63  90 S9        29.69R
$$

SDZ012>016-024>037-041>051-057-063-072>074-201100-
SOUTHWEST AND SOUTH CENTRAL SOUTH DAKOTA

CITY           SKY/WX    TMP DP  RH WIND       PRES   REMARKS
RAPID CTY ARPT MOCLDY    67  56  67 SE9       29.71F
PIERRE         PTCLDY    68  57  68 SE9       29.69S
CUSTER         MOCLDY    63  47  55 W7        29.87F
ELLSWORTH AFB  CLOUDY    71  55  56 E15       29.71S
PHILIP         MOCLDY    70  64  81 SE10      29.69F
PINE RIDGE     CLOUDY    66  58  75 E5        29.75S
WINNER         FAIR      70  64  81 NE17      29.73S
$$

SDZ004>011-016>023-039-040-201100-
NORTHEAST SOUTH DAKOTA

CITY           SKY/WX    TMP DP  RH WIND       PRES   REMARKS
ABERDEEN       MOCLDY    61  61 100 SE6       29.74F
WATERTOWN      CLOUDY    64  60  87 SE3       29.79F
SISSETON         N/A     59  59 100 CALM      29.76F
$$

SDZ017-020-022-023-036>040-048>070-201100-
SOUTHEAST SOUTH DAKOTA

CITY           SKY/WX    TMP DP  RH WIND       PRES   REMARKS
SIOUX FALLS    CLOUDY    68  64  87 CALM      29.81R
HURON          LGT RAIN  68  63  84 S9        29.75R
CHAMBERLAIN    MOCLDY    66  61  82 E8G17     29.74F HAZE
MITCHELL       CLOUDY    69  65  86 NE7       29.76R
YANKTON        CLOUDY    68  66  94 E10       29.76F
$$

ABBREVIATIONS USED IN REMARKS
   TC - TEMPERATURE IN CELSIUS
  WCI - WIND CHILL INDEX
   HX - HEAT INDEX
  VSB - VISIBILITY



USA.gov is the U.S. government's official web portal to all federal, state and local government web resources and services.